Date String (YYYY-MM-DD hh:mm:ss) UTC,Instrument flags,absolute air pressure of the measurement (hPa),sample flow rate (lpm),inlet stack bypass flow (lpm),air temperature of the measurement (°C),ambient temperature measured by the external sensor (°C),aerosol sample conditioner tube jacket temperature (°C),OPC LED temperature (°C),internal box temperature (°C),relative humidity of the measurement (%),span deviation,mass concentration of particles derived from Lorenz-Mie calculation of OPC scattering (μg/m³),mass concentration of particles derived from Lorenz-Mie calculation of OPC scattering (μg/m³),mass concentration of particles derived from Lorenz-Mie calculation of OPC scattering (μg/m³)
DateTimeUTC,F1_M11,P_M11,Q1_M11,Q2_M11,T1_M11,T2_M11,T3_M11,T4_M11,T5_M11,U1_M11,ZSPAN_M11,X2_M11,X0_M11,X1_M11
2024-02-08 01:00:00,SystemResetWarning,0810.9,5.02,000.00,020.1,019.4,000.0,028.4,021.7,13.4,0000.0,0000.38,0002.61,0000.21
2024-02-08 01:01:00,SystemResetWarning,0810.9,5.00,000.00,020.1,019.4,000.0,028.4,021.7,13.2,0000.0,0000.38,0002.53,0000.21
2024-02-08 01:02:00,SystemResetWarning,0810.9,4.99,000.00,020.1,019.4,000.0,028.4,021.7,12.9,0000.0,0000.38,0002.07,0000.22
2024-02-08 01:03:00,SystemResetWarning,0810.9,5.00,000.00,020.1,019.4,000.0,028.4,021.7,12.7,0000.0,0000.37,0001.10,0000.22
2024-02-08 01:04:00,SystemResetWarning,0810.8,5.00,000.00,020.1,019.4,000.0,028.4,021.7,11.9,0000.0,0000.37,0001.16,0000.22
2024-02-08 01:05:00,SystemResetWarning,0810.8,5.01,000.00,020.1,019.4,000.0,028.4,021.6,11.7,0000.0,0000.39,0001.49,0000.23
2024-02-08 01:06:00,SystemResetWarning,0810.9,5.00,000.00,020.1,019.4,000.0,028.4,021.6,11.2,0000.0,0000.42,0001.54,0000.23
2024-02-08 01:07:00,SystemResetWarning,0810.8,5.00,000.00,020.1,019.3,000.0,028.4,021.6,11.0,0000.0,0000.41,0001.53,0000.24
2024-02-08 01:08:00,SystemResetWarning,0810.8,5.00,000.00,020.0,019.3,000.0,028.4,021.6,11.2,0000.0,0000.43,0001.61,0000.25
2024-02-08 01:09:00,SystemResetWarning,0810.8,5.00,000.00,020.0,019.3,000.0,028.3,021.6,11.6,0000.0,0000.43,0001.61,0000.26
2024-02-08 01:10:00,SystemResetWarning,0810.8,5.00,000.00,020.0,019.3,000.0,028.3,021.6,11.5,0000.0,0000.42,0001.46,0000.26
2024-02-08 01:11:00,SystemResetWarning,0810.8,5.00,000.00,020.0,019.3,000.0,028.3,021.6,11.4,0000.0,0000.44,0001.43,0000.27
2024-02-08 01:12:00,SystemResetWarning,0810.8,5.00,000.00,020.0,019.3,000.0,028.3,021.6,11.3,0000.0,0000.45,0001.53,0000.28
2024-02-08 01:13:00,SystemResetWarning,0810.7,4.99,000.00,020.0,019.3,000.0,028.3,021.6,11.3,0000.0,0000.47,0001.55,0000.29
2024-02-08 01:14:00,SystemResetWarning,0810.7,5.00,000.00,020.0,019.2,000.0,028.3,021.6,11.6,0000.0,0000.48,0001.57,0000.29
2024-02-08 01:15:00,SystemResetWarning,0810.7,5.00,000.00,020.0,019.2,000.0,028.3,021.5,12.0,0000.0,0000.51,0001.32,0000.30
2024-02-08 01:16:00,SystemResetWarning,0810.7,5.00,000.00,020.0,019.2,000.0,028.3,021.5,11.7,0000.0,0000.51,0001.07,0000.30
2024-02-08 01:17:00,SystemResetWarning,0810.7,5.00,000.00,020.0,019.2,000.0,028.3,021.5,11.5,0000.0,0000.49,0001.03,0000.30
2024-02-08 01:18:00,SystemResetWarning,0810.7,5.00,000.00,019.9,019.2,000.0,028.3,021.6,11.7,0000.0,0000.49,0001.16,0000.30
2024-02-08 01:19:00,SystemResetWarning,0810.7,5.00,000.00,019.9,019.2,000.0,028.3,021.5,11.7,0000.0,0000.48,0001.27,0000.30
2024-02-08 01:20:00,SystemResetWarning,0810.6,5.00,000.00,019.9,019.2,000.0,028.2,021.5,11.5,0000.0,0000.47,0001.21,0000.30
2024-02-08 01:21:00,SystemResetWarning,0810.7,5.00,000.00,019.9,019.2,000.0,028.2,021.5,11.7,0000.0,0000.47,0001.18,0000.30
2024-02-08 01:22:00,SystemResetWarning,0810.7,5.00,000.00,019.9,019.2,000.0,028.2,021.5,11.9,0000.0,0000.45,0001.12,0000.30
2024-02-08 01:23:00,SystemResetWarning,0810.7,5.00,000.00,019.9,019.2,000.0,028.2,021.5,11.9,0000.0,0000.45,0001.05,0000.30
2024-02-08 01:24:00,SystemResetWarning,0810.7,5.01,000.00,019.9,019.2,000.0,028.2,021.4,11.7,0000.0,0000.47,0001.15,0000.30
2024-02-08 01:25:00,SystemResetWarning,0810.7,5.01,000.00,019.9,019.2,000.0,028.2,021.4,12.1,0000.0,0000.47,0001.14,0000.31
2024-02-08 01:26:00,SystemResetWarning,0810.8,5.00,000.00,019.9,019.2,000.0,028.2,021.4,11.7,0000.0,0000.45,0001.12,0000.31
2024-02-08 01:27:00,SystemResetWarning,0810.8,5.01,000.00,019.9,019.2,000.0,028.2,021.4,11.8,0000.0,0000.45,0001.11,0000.31
2024-02-08 01:28:00,SystemResetWarning,0810.7,5.00,000.00,019.9,019.2,000.0,028.2,021.4,11.7,0000.0,0000.44,0001.08,0000.31
2024-02-08 01:29:00,SystemResetWarning,0810.7,5.00,000.00,019.9,019.2,000.0,028.2,021.4,11.4,0000.0,0000.46,0001.03,0000.31
2024-02-08 01:30:00,SystemResetWarning,0810.7,5.00,000.00,019.9,019.2,000.0,028.2,021.4,11.0,0000.0,0000.45,0000.74,0000.31
2024-02-08 01:31:00,SystemResetWarning,0810.7,5.00,000.00,019.9,019.2,000.0,028.2,021.4,10.9,0000.0,0000.43,0001.24,0000.30
2024-02-08 01:32:00,SystemResetWarning,0810.7,5.00,000.00,019.9,019.2,000.0,028.2,021.5,10.6,0000.0,0000.44,0001.61,0000.31
2024-02-08 01:33:00,SystemResetWarning,0810.7,5.00,000.00,019.9,019.2,000.0,028.2,021.5,10.3,0000.0,0000.44,0001.60,0000.31
2024-02-08 01:34:00,SystemResetWarning,0810.8,5.00,000.00,019.9,019.2,000.0,028.2,021.5,10.6,0000.0,0000.43,0001.55,0000.32
2024-02-08 01:35:00,SystemResetWarning,0810.8,5.00,000.00,019.9,019.2,000.0,028.2,021.5,10.9,0000.0,0000.39,0001.40,0000.31
2024-02-08 01:36:00,SystemResetWarning,0810.8,5.00,000.00,019.9,019.2,000.0,028.2,021.4,11.1,0000.0,0000.38,0001.40,0000.31
2024-02-08 01:37:00,SystemResetWarning,0810.8,5.00,000.00,019.9,019.2,000.0,028.2,021.5,11.0,0000.0,0000.40,0001.43,0000.31
2024-02-08 01:38:00,SystemResetWarning,0810.8,5.00,000.00,019.9,019.2,000.0,028.2,021.5,10.9,0000.0,0000.39,0001.41,0000.30
2024-02-08 01:39:00,SystemResetWarning,0810.7,5.00,000.00,019.9,019.2,000.0,028.2,021.5,10.7,0000.0,0000.39,0001.40,0000.31
2024-02-08 01:40:00,SystemResetWarning,0810.8,5.00,000.00,019.9,019.2,000.0,028.2,021.5,10.8,0000.0,0000.38,0001.45,0000.32
2024-02-08 01:41:00,SystemResetWarning,0810.8,5.00,000.00,019.9,019.2,000.0,028.2,021.5,10.9,0000.0,0000.43,0001.58,0000.32
2024-02-08 01:42:00,SystemResetWarning,0810.7,5.00,000.00,019.9,019.2,000.0,028.2,021.5,11.0,0000.0,0000.45,0001.02,0000.33
2024-02-08 01:43:00,SystemResetWarning,0810.6,5.00,000.00,019.9,019.2,000.0,028.1,021.5,10.7,0000.0,0000.46,0000.74,0000.33
2024-02-08 01:44:00,SystemResetWarning,0810.6,5.00,000.00,019.9,019.2,000.0,028.1,021.5,10.7,0000.0,0000.49,0000.80,0000.33
2024-02-08 01:45:00,SystemResetWarning,0810.6,5.00,000.00,019.9,019.2,000.0,028.2,021.5,11.0,0000.0,0000.50,0000.89,0000.32
2024-02-08 01:46:00,SystemResetWarning,0810.6,5.00,000.00,019.9,019.2,000.0,028.2,021.5,11.3,0000.0,0000.53,0001.00,0000.33
2024-02-08 01:47:00,SystemResetWarning,0810.6,5.00,000.00,019.9,019.2,000.0,028.2,021.5,11.9,0000.0,0000.53,0001.68,0000.33
2024-02-08 01:48:00,SystemResetWarning,0810.6,5.01,000.00,019.8,019.2,000.0,028.2,021.4,11.6,0000.0,0000.52,0002.71,0000.32
2024-02-08 01:49:00,SystemResetWarning,0810.5,4.99,000.00,019.8,019.2,000.0,028.1,021.5,11.5,0000.0,0000.53,0002.74,0000.32
2024-02-08 01:50:00,SystemResetWarning,0810.6,4.99,000.00,019.8,019.2,000.0,028.1,021.4,11.1,0000.0,0000.55,0002.79,0000.32
2024-02-08 01:51:00,SystemResetWarning,0810.5,4.99,000.00,019.8,019.1,000.0,028.1,021.4,11.0,0000.0,0000.56,0002.85,0000.31
2024-02-08 01:52:00,SystemResetWarning,0810.5,5.00,000.00,019.8,019.1,000.0,028.1,021.4,11.2,0000.0,0000.51,0002.77,0000.30
2024-02-08 01:53:00,SystemResetWarning,0810.6,5.02,000.00,019.8,019.1,000.0,028.1,021.4,11.2,0000.0,0000.48,0002.71,0000.30
2024-02-08 01:54:00,SystemResetWarning,0810.5,5.01,000.00,019.8,019.1,000.0,028.1,021.4,11.3,0000.0,0000.50,0002.73,0000.30
2024-02-08 01:55:00,SystemResetWarning,0810.6,4.99,000.00,019.8,019.1,000.0,028.1,021.4,11.4,0000.0,0000.49,0002.72,0000.30
2024-02-08 01:56:00,SystemResetWarning,0810.5,4.99,000.00,019.8,019.1,000.0,028.1,021.4,11.2,0000.0,0000.48,0002.66,0000.30
2024-02-08 01:57:00,SystemResetWarning,0810.4,5.00,000.00,019.8,019.1,000.0,028.1,021.4,11.2,0000.0,0000.47,0002.60,0000.30
2024-02-08 01:58:00,SystemResetWarning,0810.4,5.01,000.00,019.8,019.1,000.0,028.1,021.4,10.9,0000.0,0000.48,0002.31,0000.30
2024-02-08 01:59:00,SystemResetWarning,0810.4,5.01,000.00,019.8,019.1,000.0,028.1,021.4,11.0,0000.0,0000.48,0000.89,0000.31
